Aeroporto :
LOGIN :

Iscrizione | Disclaimer

   EN    FR    IT 

 










Sommario :    VFR   VFR Marginale   IFR   IFR Intensivo   IFR Molto Intensivo
Visibilità : 
Base nubi : 
>= 8 km
>= 3000ft
5 / 8 km
1000 / 3000 ft
1500m / 5 km
500 / 1000 ft
800 / 1500m
200 / 500 ft
< 800m
< 200 ft
Simboli :   Temporali  Nebbia  Neve Forte  Precipitazioni Forti  Vento > 20 kt
SIGMETs :   Varie  Temporali  Ghiacco  Turbolenza  Onda orograficha  Ceneri Vulcaniche






- Altitudine del aeroporto : 38 ft
- Codice IATA : ADX


EGQL - RAF Leuchars

ULTIMO METAR :
  • 191450Z 11006KT CAVOK 15/10 Q1026 BLU

METARs OBSOLETI :
  • 191350Z 13006KT CAVOK 15/09 Q1026 BLU
  • 191250Z 11007KT CAVOK 15/10 Q1027 BLU

TAF TAF EGQL
Valido dal 19 a 15 ore il 20 a 00 ore UTC


191325Z 1915/1924 12005KT 9999 FEW010
TEMPO 1918/1924 SCT008
PROB30
TEMPO 1919/1924 5000 BR SCT004 BKN008



MetMap, La meteo Aeronautica in un colpo d'occhio ! - Copyright ORBIFLY Dicembre 2007 - Disclaimer

ORBIFLY MET'MAP TEAM :

Programmazione e sviluppo : Alexandra Zaïnal
Concezione : Baudouin d'Aumeries
Aiuto per la programmazione : Marc-Olivier Méhu
Supporto tecnico e logistico : Manuel Goepfert
Aiuto per la traduzione : Arnaldo La Scala

Contatto : metmap@orbifly.com




FONTI E CREDITI :

   NOAA